Simultaneous Nadir Overpasses (SNOs) Predictions

Prediction of SNOs near US between AQUA and NPP Satellite Orbit:

Table of predicted SNOs near US for the next 10.0 days since TLE Epoch: 6/1/2019
Index Date (AQUA) Time (AQUA) AQUA Lat,Lon Date (NPP) Time (NPP) NPP Lat,Lon Distance(km) Time Diff (sec)
1 06/02/2019 07:18:51 49.93, -75.98 06/02/2019 07:20:13 50.36, -78.19 164.25 82
2 06/02/2019 08:57:44 49.93,-100.70 06/02/2019 09:01:41 50.48,-103.51 208.71 237
3 06/04/2019 18:17:01 49.98, -80.17 06/04/2019 18:10:31 49.68, -81.77 119.29 390
4 06/04/2019 19:55:54 49.97,-104.89 06/04/2019 19:51:59 49.56,-107.09 164.55 235
5 06/04/2019 21:31:05 36.74,-125.00 06/04/2019 21:29:39 36.24,-127.61 239.57 86
6 06/07/2019 09:24:05 21.83,-113.82 06/07/2019 09:16:15 21.92,-114.30 50.62 470
7 06/10/2019 06:30:22 46.38, -65.03 06/10/2019 06:30:33 46.80, -67.03 159.87 11
8 06/10/2019 08:08:16 49.88, -88.36 06/10/2019 08:11:01 50.37, -90.88 187.47 165
9 06/10/2019 09:47:09 49.89,-113.08 06/10/2019 09:52:28 50.54,-116.18 231.91 319




NCC Satellite Simultaneous Nadir Overpasses (SNOs) Prediction Service
